Location: Castellar de la Frontera
(36.3200°N, 5.4500°W)
Time: 06:45:46
(UTC+02:00)

ISS - Pass Details

Date: 22 July 2018
Orbit: 402 x 408 km, 51.6° (Epoch: 18 July)

Event Time Altitude Azimuth Distance (km) Brightness Sun altitude
Rises 23:33:28 0° 273° (W) 2,311 0.7 -20.0°
Reaches altitude 10° 23:36:17 10° 300° (WNW) 1,456 0.0 -20.4°
Maximum altitude 23:38:08 14° 335° (NNW) 1,232 -0.4 -20.7°
Drops below altitude 10° 23:39:59 10° 9° (N) 1,460 -0.5 -20.9°
Sets 23:42:49 0° 36° (NE) 2,324 0.2 -21.3°
